,,PressureMeas_1m,,PRMeasQMR101_1,,RHStat155_1m_1,,SRMeasQMS101R_1m,,TAStat155_1m_1,,GenWind_1,,GenWind_1,
2018-08-03, 00:00:06,VALID,919.229,VALID,0.0,VALID,97.343,VALID,0.003,VALID,20.928,VALID,340.0,VALID,0.0,
2018-08-03, 00:01:06,VALID,919.25,VALID,0.0,VALID,97.492,VALID,-0.014,VALID,20.934,VALID,339.0,VALID,0.0,
2018-08-03, 00:02:06,VALID,919.246,VALID,0.0,VALID,97.666,VALID,-0.0,VALID,20.98,VALID,340.0,VALID,0.0,
2018-08-03, 00:03:06,VALID,919.246,VALID,0.0,VALID,97.748,VALID,0.011,VALID,21.015,VALID,340.0,VALID,0.0,
2018-08-03, 00:04:06,VALID,919.236,VALID,0.0,VALID,97.667,VALID,-0.001,VALID,20.996,VALID,340.0,VALID,0.0,
2018-08-03, 00:05:06,VALID,919.225,VALID,0.0,VALID,97.698,VALID,-0.002,VALID,20.997,VALID,357.0,VALID,0.0,
2018-08-03, 00:06:06,VALID,919.23,VALID,0.0,VALID,97.802,VALID,0.021,VALID,21.006,VALID,7.0,VALID,0.0,
2018-08-03, 00:07:06,VALID,919.241,VALID,0.0,VALID,97.809,VALID,0.022,VALID,20.981,VALID,4.0,VALID,0.0,
2018-08-03, 00:08:06,VALID,919.259,VALID,0.0,VALID,97.86,VALID,0.026,VALID,20.961,VALID,336.0,VALID,0.0,
2018-08-03, 00:09:06,VALID,919.272,VALID,0.0,VALID,97.957,VALID,0.018,VALID,20.964,VALID,324.0,VALID,0.0,
2018-08-03, 00:10:06,VALID,919.265,VALID,0.0,VALID,98.041,VALID,0.04,VALID,20.998,VALID,324.0,VALID,0.0,
2018-08-03, 00:11:06,VALID,919.25,VALID,0.0,VALID,98.041,VALID,0.022,VALID,21.0,VALID,324.0,VALID,0.0,
2018-08-03, 00:12:06,VALID,919.232,VALID,0.0,VALID,98.005,VALID,0.009,VALID,20.988,VALID,324.0,VALID,0.0,
2018-08-03, 00:13:06,VALID,919.236,VALID,0.0,VALID,98.046,VALID,0.031,VALID,21.005,VALID,324.0,VALID,0.0,
2018-08-03, 00:14:06,VALID,919.246,VALID,0.0,VALID,98.111,VALID,0.018,VALID,21.037,VALID,324.0,VALID,0.0,
2018-08-03, 00:15:06,VALID,919.258,VALID,0.0,VALID,98.11,VALID,0.017,VALID,21.054,VALID,243.0,VALID,0.0,
2018-08-03, 00:16:06,VALID,919.278,VALID,0.0,VALID,98.113,VALID,0.021,VALID,21.054,VALID,212.0,VALID,0.0,
2018-08-03, 00:17:06,VALID,919.279,VALID,0.0,VALID,98.097,VALID,0.033,VALID,21.045,VALID,225.0,VALID,0.0,
2018-08-03, 00:18:06,VALID,919.277,VALID,0.0,VALID,98.091,VALID,0.03,VALID,21.034,VALID,226.0,VALID,0.0,
2018-08-03, 00:19:06,VALID,919.28,VALID,0.0,VALID,98.164,VALID,0.023,VALID,21.037,VALID,218.0,VALID,0.0,
2018-08-03, 00:20:06,VALID,919.256,VALID,0.0,VALID,98.223,VALID,0.011,VALID,21.037,VALID,214.0,VALID,0.0,
2018-08-03, 00:21:06,VALID,919.244,VALID,0.0,VALID,98.229,VALID,-0.008,VALID,21.025,VALID,212.0,VALID,0.0,
2018-08-03, 00:22:06,VALID,919.232,VALID,0.0,VALID,98.244,VALID,0.001,VALID,21.002,VALID,194.0,VALID,0.0,
2018-08-03, 00:23:06,VALID,919.209,VALID,0.0,VALID,98.228,VALID,-0.007,VALID,20.964,VALID,205.0,VALID,0.0,
2018-08-03, 00:24:06,VALID,919.204,VALID,0.0,VALID,98.243,VALID,0.003,VALID,20.946,VALID,225.0,VALID,0.0,
2018-08-03, 00:25:06,VALID,919.209,VALID,0.0,VALID,98.268,VALID,-0.005,VALID,20.943,VALID,217.0,VALID,0.0,
2018-08-03, 00:26:06,VALID,919.213,VALID,0.0,VALID,98.313,VALID,0.007,VALID,20.952,VALID,229.0,VALID,0.0,
2018-08-03, 00:27:06,VALID,919.234,VALID,0.0,VALID,98.304,VALID,0.012,VALID,20.944,VALID,229.0,VALID,0.0,
2018-08-03, 00:28:06,VALID,919.24,VALID,0.0,VALID,98.242,VALID,0.015,VALID,20.91,VALID,229.0,VALID,0.0,
2018-08-03, 00:29:06,VALID,919.248,VALID,0.0,VALID,98.224,VALID,0.001,VALID,20.905,VALID,222.0,VALID,0.0,
2018-08-03, 00:30:06,VALID,919.236,VALID,0.0,VALID,98.198,VALID,0.005,VALID,20.885,VALID,232.0,VALID,0.0,
2018-08-03, 00:31:06,VALID,919.229,VALID,0.0,VALID,98.176,VALID,0.008,VALID,20.874,VALID,213.0,VALID,0.0,
2018-08-03, 00:32:06,VALID,919.217,VALID,0.0,VALID,98.198,VALID,0.01,VALID,20.873,VALID,227.0,VALID,0.0,
2018-08-03, 00:33:06,VALID,919.195,VALID,0.0,VALID,98.131,VALID,0.001,VALID,20.848,VALID,216.0,VALID,0.0,
2018-08-03, 00:34:06,VALID,919.173,VALID,0.0,VALID,98.131,VALID,0.0,VALID,20.853,VALID,227.0,VALID,0.0,
2018-08-03, 00:35:06,VALID,919.183,VALID,0.0,VALID,98.131,VALID,0.0,VALID,20.867,VALID,232.0,VALID,0.0,
2018-08-03, 00:36:06,VALID,919.195,VALID,0.0,VALID,98.054,VALID,0.003,VALID,20.857,VALID,221.0,VALID,0.0,
2018-08-03, 00:37:06,VALID,919.199,VALID,0.0,VALID,98.056,VALID,0.008,VALID,20.863,VALID,229.0,VALID,0.969,
2018-08-03, 00:38:06,VALID,919.2,VALID,0.0,VALID,97.943,VALID,0.005,VALID,20.824,VALID,231.0,VALID,1.082,
2018-08-03, 00:39:06,VALID,919.209,VALID,0.0,VALID,97.933,VALID,0.014,VALID,20.8,VALID,230.0,VALID,0.657,
2018-08-03, 00:40:06,VALID,919.207,VALID,0.0,VALID,97.97,VALID,-0.005,VALID,20.804,VALID,222.0,VALID,0.469,
2018-08-03, 00:41:06,VALID,919.194,VALID,0.0,VALID,98.032,VALID,-0.007,VALID,20.828,VALID,253.0,VALID,0.42,
2018-08-03, 00:42:06,VALID,919.187,VALID,0.0,VALID,98.082,VALID,-0.012,VALID,20.837,VALID,223.0,VALID,0.86,
2018-08-03, 00:43:06,VALID,919.148,VALID,0.0,VALID,97.904,VALID,0.001,VALID,20.788,VALID,235.0,VALID,0.755,
2018-08-03, 00:44:06,VALID,919.121,VALID,0.0,VALID,97.905,VALID,-0.006,VALID,20.786,VALID,227.0,VALID,0.929,
2018-08-03, 00:45:06,VALID,919.11,VALID,0.0,VALID,97.898,VALID,-0.01,VALID,20.797,VALID,222.0,VALID,0.215,
2018-08-03, 00:46:06,VALID,919.09,VALID,0.0,VALID,97.963,VALID,0.022,VALID,20.831,VALID,231.0,VALID,0.039,
2018-08-03, 00:47:06,VALID,919.082,VALID,0.0,VALID,98.055,VALID,0.014,VALID,20.888,VALID,348.0,VALID,0.11,
2018-08-03, 00:48:06,VALID,919.072,VALID,0.0,VALID,98.034,VALID,0.005,VALID,20.896,VALID,21.0,VALID,0.121,
2018-08-03, 00:49:06,VALID,919.034,VALID,0.0,VALID,98.072,VALID,0.01,VALID,20.912,VALID,27.0,VALID,0.0,
2018-08-03, 00:50:06,VALID,918.999,VALID,0.0,VALID,98.071,VALID,-0.006,VALID,20.934,VALID,27.0,VALID,0.06,
2018-08-03, 00:51:06,VALID,918.977,VALID,0.0,VALID,98.046,VALID,0.007,VALID,20.957,VALID,33.0,VALID,0.134,
2018-08-03, 00:52:06,VALID,918.966,VALID,0.0,VALID,97.986,VALID,0.017,VALID,20.963,VALID,34.0,VALID,0.001,
2018-08-03, 00:53:06,VALID,918.964,VALID,0.0,VALID,97.958,VALID,0.018,VALID,20.985,VALID,48.0,VALID,0.0,
2018-08-03, 00:54:06,VALID,918.956,VALID,0.0,VALID,97.823,VALID,0.013,VALID,20.961,VALID,176.0,VALID,0.064,
2018-08-03, 00:55:06,VALID,918.958,VALID,0.0,VALID,97.632,VALID,0.005,VALID,20.937,VALID,216.0,VALID,0.184,
2018-08-03, 00:56:06,VALID,918.939,VALID,0.0,VALID,97.518,VALID,-0.008,VALID,20.939,VALID,215.0,VALID,0.025,
2018-08-03, 00:57:06,VALID,918.909,VALID,0.0,VALID,97.336,VALID,0.005,VALID,20.926,VALID,214.0,VALID,0.055,
2018-08-03, 00:58:06,VALID,918.89,VALID,0.0,VALID,97.152,VALID,0.001,VALID,20.908,VALID,217.0,VALID,0.117,
2018-08-03, 00:59:06,VALID,918.87,VALID,0.0,VALID,97.211,VALID,0.002,VALID,20.922,VALID,230.0,VALID,0.014,
2018-08-03, 01:00:06,VALID,918.854,VALID,0.0,VALID,97.163,VALID,0.004,VALID,20.91,VALID,245.0,VALID,0.001,
2018-08-03, 01:01:06,VALID,918.844,VALID,0.0,VALID,97.147,VALID,0.014,VALID,20.908,VALID,244.0,VALID,0.0,
2018-08-03, 01:02:06,VALID,918.827,VALID,0.0,VALID,97.134,VALID,-0.01,VALID,20.915,VALID,220.0,VALID,0.062,
2018-08-03, 01:03:06,VALID,918.798,VALID,0.0,VALID,97.034,VALID,0.006,VALID,20.895,VALID,209.0,VALID,0.112,
2018-08-03, 01:04:06,VALID,918.767,VALID,0.0,VALID,96.99,VALID,0.005,VALID,20.864,VALID,201.0,VALID,0.154,
2018-08-03, 01:05:06,VALID,918.734,VALID,0.0,VALID,97.062,VALID,-0.002,VALID,20.854,VALID,193.0,VALID,0.0,
2018-08-03, 01:06:06,VALID,918.71,VALID,0.0,VALID,97.263,VALID,-0.0,VALID,20.901,VALID,201.0,VALID,0.0,
2018-08-03, 01:07:06,VALID,918.696,VALID,0.0,VALID,97.232,VALID,0.008,VALID,20.909,VALID,92.0,VALID,0.0,
2018-08-03, 01:08:06,VALID,918.676,VALID,0.0,VALID,97.114,VALID,-0.009,VALID,20.897,VALID,83.0,VALID,0.0,
2018-08-03, 01:09:06,VALID,918.666,VALID,0.0,VALID,97.102,VALID,-0.004,VALID,20.9,VALID,83.0,VALID,0.0,
2018-08-03, 01:10:06,VALID,918.657,VALID,0.0,VALID,97.098,VALID,0.018,VALID,20.931,VALID,83.0,VALID,0.0,
2018-08-03, 01:11:06,VALID,918.642,VALID,0.0,VALID,97.074,VALID,0.015,VALID,20.954,VALID,83.0,VALID,0.0,
2018-08-03, 01:12:06,VALID,918.615,VALID,0.0,VALID,96.927,VALID,-0.006,VALID,20.939,VALID,83.0,VALID,0.0,
2018-08-03, 01:13:06,VALID,918.599,VALID,0.0,VALID,96.846,VALID,-0.006,VALID,20.94,VALID,83.0,VALID,0.0,
2018-08-03, 01:14:06,VALID,918.583,VALID,0.0,VALID,96.786,VALID,0.002,VALID,20.932,VALID,83.0,VALID,0.0,
2018-08-03, 01:15:06,VALID,918.56,VALID,0.0,VALID,96.852,VALID,-0.017,VALID,20.922,VALID,83.0,VALID,0.0,
2018-08-03, 01:16:06,VALID,918.547,VALID,0.0,VALID,96.939,VALID,0.007,VALID,20.921,VALID,83.0,VALID,0.0,
2018-08-03, 01:17:06,VALID,918.509,VALID,0.0,VALID,96.843,VALID,0.011,VALID,20.909,VALID,83.0,VALID,0.0,
2018-08-03, 01:18:06,VALID,918.487,VALID,0.0,VALID,96.811,VALID,0.006,VALID,20.91,VALID,95.0,VALID,0.0,
2018-08-03, 01:19:06,VALID,918.469,VALID,0.0,VALID,96.704,VALID,-0.002,VALID,20.89,VALID,136.0,VALID,0.0,
2018-08-03, 01:20:06,VALID,918.445,VALID,0.0,VALID,96.684,VALID,0.007,VALID,20.892,VALID,138.0,VALID,0.0,
2018-08-03, 01:21:06,VALID,918.43,VALID,0.0,VALID,96.7,VALID,-0.007,VALID,20.899,VALID,138.0,VALID,0.0,
2018-08-03, 01:22:06,VALID,918.414,VALID,0.0,VALID,96.699,VALID,-0.022,VALID,20.901,VALID,138.0,VALID,0.0,
2018-08-03, 01:23:06,VALID,918.411,VALID,0.0,VALID,96.645,VALID,-0.016,VALID,20.892,VALID,138.0,VALID,0.0,
2018-08-03, 01:24:06,VALID,918.402,VALID,0.0,VALID,96.636,VALID,-0.01,VALID,20.891,VALID,138.0,VALID,0.0,
2018-08-03, 01:25:06,VALID,918.395,VALID,0.0,VALID,96.734,VALID,-0.007,VALID,20.902,VALID,138.0,VALID,0.0,
2018-08-03, 01:26:06,VALID,918.382,VALID,0.0,VALID,96.674,VALID,0.012,VALID,20.884,VALID,138.0,VALID,0.0,
2018-08-03, 01:27:06,VALID,918.388,VALID,0.0,VALID,96.608,VALID,-0.003,VALID,20.86,VALID,138.0,VALID,0.0,
2018-08-03, 01:28:06,VALID,918.394,VALID,0.0,VALID,96.705,VALID,-0.003,VALID,20.864,VALID,174.0,VALID,0.0,
2018-08-03, 01:29:06,VALID,918.399,VALID,0.0,VALID,96.619,VALID,-0.009,VALID,20.837,VALID,203.0,VALID,0.0,
2018-08-03, 01:30:06,VALID,918.38,VALID,0.0,VALID,96.572,VALID,-0.004,VALID,20.813,VALID,221.0,VALID,0.0,
2018-08-03, 01:31:06,VALID,918.361,VALID,0.0,VALID,96.701,VALID,-0.007,VALID,20.816,VALID,226.0,VALID,0.0,
2018-08-03, 01:32:06,VALID,918.329,VALID,0.0,VALID,96.705,VALID,0.005,VALID,20.805,VALID,230.0,VALID,0.0,
2018-08-03, 01:33:06,VALID,918.298,VALID,0.0,VALID,96.662,VALID,0.005,VALID,20.776,VALID,222.0,VALID,0.0,
2018-08-03, 01:34:06,VALID,918.273,VALID,0.0,VALID,96.823,VALID,0.001,VALID,20.768,VALID,220.0,VALID,0.0,
2018-08-03, 01:35:06,VALID,918.248,VALID,0.0,VALID,96.875,VALID,-0.003,VALID,20.745,VALID,224.0,VALID,0.0,
2018-08-03, 01:36:06,VALID,918.234,VALID,0.0,VALID,96.874,VALID,0.012,VALID,20.715,VALID,222.0,VALID,0.0,
2018-08-03, 01:37:06,VALID,918.228,VALID,0.0,VALID,96.924,VALID,0.011,VALID,20.676,VALID,232.0,VALID,0.0,
2018-08-03, 01:38:06,VALID,918.233,VALID,0.0,VALID,96.99,VALID,0.008,VALID,20.639,VALID,228.0,VALID,0.0,
2018-08-03, 01:39:06,VALID,918.22,VALID,0.0,VALID,97.127,VALID,0.012,VALID,20.608,VALID,239.0,VALID,0.0,
2018-08-03, 01:40:06,VALID,918.22,VALID,0.0,VALID,97.225,VALID,0.017,VALID,20.592,VALID,233.0,VALID,0.0,
2018-08-03, 01:41:06,VALID,918.222,VALID,0.0,VALID,97.226,VALID,0.017,VALID,20.566,VALID,232.0,VALID,0.0,
2018-08-03, 01:42:06,VALID,918.233,VALID,0.0,VALID,97.289,VALID,0.014,VALID,20.577,VALID,262.0,VALID,0.0,
2018-08-03, 01:43:06,VALID,918.24,VALID,0.0,VALID,97.22,VALID,0.006,VALID,20.571,VALID,220.0,VALID,0.0,
2018-08-03, 01:44:06,VALID,918.235,VALID,0.0,VALID,97.146,VALID,0.002,VALID,20.568,VALID,247.0,VALID,0.0,
2018-08-03, 01:45:06,VALID,918.233,VALID,0.0,VALID,97.079,VALID,0.018,VALID,20.583,VALID,252.0,VALID,0.0,
2018-08-03, 01:46:06,VALID,918.225,VALID,0.0,VALID,97.171,VALID,0.01,VALID,20.616,VALID,286.0,VALID,0.0,
2018-08-03, 01:47:06,VALID,918.22,VALID,0.0,VALID,97.147,VALID,0.007,VALID,20.627,VALID,288.0,VALID,0.0,
2018-08-03, 01:48:06,VALID,918.2,VALID,0.0,VALID,96.902,VALID,0.009,VALID,20.577,VALID,339.0,VALID,0.0,
2018-08-03, 01:49:06,VALID,918.199,VALID,0.0,VALID,96.94,VALID,0.016,VALID,20.547,VALID,355.0,VALID,0.0,
2018-08-03, 01:50:06,VALID,918.185,VALID,0.0,VALID,97.013,VALID,0.009,VALID,20.524,VALID,8.0,VALID,0.0,
2018-08-03, 01:51:06,VALID,918.189,VALID,0.0,VALID,97.018,VALID,0.003,VALID,20.497,VALID,9.0,VALID,0.0,
2018-08-03, 01:52:06,VALID,918.19,VALID,0.0,VALID,97.04,VALID,0.001,VALID,20.473,VALID,28.0,VALID,0.0,
2018-08-03, 01:53:06,VALID,918.208,VALID,0.0,VALID,97.095,VALID,0.01,VALID,20.454,VALID,28.0,VALID,0.0,
2018-08-03, 01:54:06,VALID,918.236,VALID,0.0,VALID,97.041,VALID,0.011,VALID,20.425,VALID,28.0,VALID,0.0,
2018-08-03, 01:55:06,VALID,918.246,VALID,0.0,VALID,97.137,VALID,0.004,VALID,20.429,VALID,28.0,VALID,0.0,
2018-08-03, 01:56:06,VALID,918.26,VALID,0.0,VALID,97.139,VALID,0.018,VALID,20.427,VALID,28.0,VALID,0.0,
2018-08-03, 01:57:06,VALID,918.272,VALID,0.0,VALID,97.07,VALID,0.006,VALID,20.432,VALID,29.0,VALID,0.0,
2018-08-03, 01:58:06,VALID,918.27,VALID,0.0,VALID,97.071,VALID,0.008,VALID,20.425,INVALID,360.0,VALID,0.0,
2018-08-03, 01:59:06,VALID,918.277,VALID,0.0,VALID,97.04,VALID,-0.006,VALID,20.417,INVALID,360.0,VALID,0.0,
2018-08-03, 02:00:06,VALID,918.26,VALID,0.0,VALID,97.048,VALID,-0.008,VALID,20.398,INVALID,360.0,VALID,0.0,
2018-08-03, 02:01:06,VALID,918.242,VALID,0.0,VALID,96.952,VALID,0.006,VALID,20.358,INVALID,360.0,VALID,0.0,
2018-08-03, 02:02:06,VALID,918.242,VALID,0.0,VALID,96.806,VALID,0.0,VALID,20.312,INVALID,360.0,VALID,0.0,
2018-08-03, 02:03:06,VALID,918.228,VALID,0.0,VALID,96.772,VALID,-0.001,VALID,20.288,INVALID,360.0,VALID,0.0,
2018-08-03, 02:04:06,VALID,918.214,VALID,0.0,VALID,96.871,VALID,0.002,VALID,20.285,INVALID,360.0,VALID,0.0,
2018-08-03, 02:05:06,VALID,918.202,VALID,0.0,VALID,96.936,VALID,-0.003,VALID,20.283,INVALID,360.0,VALID,0.0,
2018-08-03, 02:06:06,VALID,918.198,VALID,0.0,VALID,97.079,VALID,0.004,VALID,20.279,INVALID,360.0,VALID,0.0,
2018-08-03, 02:07:06,VALID,918.186,VALID,0.0,VALID,97.174,VALID,0.01,VALID,20.266,INVALID,360.0,VALID,0.0,
2018-08-03, 02:08:06,VALID,918.176,VALID,0.0,VALID,97.142,VALID,-0.0,VALID,20.246,INVALID,360.0,VALID,0.0,
2018-08-03, 02:09:06,VALID,918.177,VALID,0.0,VALID,97.078,VALID,-0.014,VALID,20.218,INVALID,360.0,VALID,0.0,
2018-08-03, 02:10:06,VALID,918.18,VALID,0.0,VALID,97.139,VALID,0.001,VALID,20.222,INVALID,360.0,VALID,0.0,
2018-08-03, 02:11:06,VALID,918.175,VALID,0.0,VALID,97.328,VALID,-0.004,VALID,20.269,INVALID,360.0,VALID,0.0,
2018-08-03, 02:12:06,VALID,918.182,VALID,0.0,VALID,97.369,VALID,-0.003,VALID,20.307,INVALID,360.0,VALID,0.0,
2018-08-03, 02:13:06,VALID,918.183,VALID,0.0,VALID,97.277,VALID,0.012,VALID,20.315,INVALID,360.0,VALID,0.0,
2018-08-03, 02:14:06,VALID,918.184,VALID,0.0,VALID,97.277,VALID,0.013,VALID,20.335,INVALID,360.0,VALID,0.0,
2018-08-03, 02:15:06,VALID,918.189,VALID,0.0,VALID,97.188,VALID,0.017,VALID,20.334,INVALID,360.0,VALID,0.0,
2018-08-03, 02:16:06,VALID,918.191,VALID,0.0,VALID,97.15,VALID,0.015,VALID,20.334,INVALID,360.0,VALID,0.0,
2018-08-03, 02:17:06,VALID,918.199,VALID,0.0,VALID,97.219,VALID,0.012,VALID,20.352,INVALID,360.0,VALID,0.0,
2018-08-03, 02:18:06,VALID,918.213,VALID,0.0,VALID,97.158,VALID,0.011,VALID,20.346,INVALID,360.0,VALID,0.0,
2018-08-03, 02:19:06,VALID,918.221,VALID,0.0,VALID,97.159,VALID,0.015,VALID,20.344,INVALID,360.0,VALID,0.0,
2018-08-03, 02:20:06,VALID,918.23,VALID,0.0,VALID,97.159,VALID,0.017,VALID,20.335,INVALID,360.0,VALID,0.0,
2018-08-03, 02:21:06,VALID,918.225,VALID,0.0,VALID,97.088,VALID,-0.004,VALID,20.294,INVALID,360.0,VALID,0.0,
2018-08-03, 02:22:06,VALID,918.222,VALID,0.0,VALID,97.083,VALID,0.003,VALID,20.253,INVALID,360.0,VALID,0.0,
2018-08-03, 02:23:06,VALID,918.213,VALID,0.0,VALID,97.065,VALID,0.027,VALID,20.197,INVALID,360.0,VALID,0.0,
2018-08-03, 02:24:06,VALID,918.212,VALID,0.0,VALID,96.922,VALID,0.011,VALID,20.127,INVALID,360.0,VALID,0.0,
2018-08-03, 02:25:06,VALID,918.219,VALID,0.0,VALID,97.079,VALID,0.017,VALID,20.094,INVALID,360.0,VALID,0.0,
2018-08-03, 02:26:06,VALID,918.224,VALID,0.0,VALID,97.303,VALID,0.015,VALID,20.081,INVALID,360.0,VALID,0.0,
2018-08-03, 02:27:06,VALID,918.238,VALID,0.0,VALID,97.488,VALID,-0.005,VALID,20.063,INVALID,360.0,VALID,0.0,
2018-08-03, 02:28:06,VALID,918.243,VALID,0.0,VALID,97.632,VALID,0.001,VALID,20.035,INVALID,360.0,VALID,0.0,
2018-08-03, 02:29:06,VALID,918.238,VALID,0.0,VALID,97.727,VALID,0.001,VALID,20.021,INVALID,360.0,VALID,0.0,
2018-08-03, 02:30:06,VALID,918.237,VALID,0.0,VALID,97.816,VALID,-0.001,VALID,20.006,INVALID,360.0,VALID,0.0,
2018-08-03, 02:31:06,VALID,918.232,VALID,0.0,VALID,97.801,VALID,0.011,VALID,19.973,INVALID,360.0,VALID,0.0,
2018-08-03, 02:32:06,VALID,918.226,VALID,0.0,VALID,97.904,VALID,0.006,VALID,19.977,INVALID,360.0,VALID,0.0,
2018-08-03, 02:33:06,VALID,918.23,VALID,0.0,VALID,97.927,VALID,0.001,VALID,19.96,INVALID,360.0,VALID,0.0,
2018-08-03, 02:34:06,VALID,918.224,VALID,0.0,VALID,97.894,VALID,0.013,VALID,19.93,INVALID,360.0,VALID,0.0,
2018-08-03, 02:35:06,VALID,918.225,VALID,0.0,VALID,97.908,VALID,-0.001,VALID,19.915,INVALID,360.0,VALID,0.0,
2018-08-03, 02:36:06,VALID,918.226,VALID,0.0,VALID,97.801,VALID,-0.004,VALID,19.847,INVALID,360.0,VALID,0.0,
2018-08-03, 02:37:06,VALID,918.241,VALID,0.0,VALID,97.691,VALID,0.008,VALID,19.817,INVALID,360.0,VALID,0.0,
2018-08-03, 02:38:06,VALID,918.242,VALID,0.0,VALID,97.892,VALID,0.015,VALID,19.859,INVALID,360.0,VALID,0.0,
2018-08-03, 02:39:06,VALID,918.238,VALID,0.0,VALID,97.904,VALID,0.002,VALID,19.847,INVALID,360.0,VALID,0.0,
2018-08-03, 02:40:06,VALID,918.233,VALID,0.0,VALID,97.838,VALID,0.002,VALID,19.824,INVALID,360.0,VALID,0.0,
2018-08-03, 02:41:06,VALID,918.225,VALID,0.0,VALID,97.557,VALID,-0.007,VALID,19.746,INVALID,360.0,VALID,0.0,
2018-08-03, 02:42:06,VALID,918.218,VALID,0.0,VALID,97.811,VALID,-0.004,VALID,19.801,INVALID,360.0,VALID,0.0,
2018-08-03, 02:43:06,VALID,918.22,VALID,0.0,VALID,97.768,VALID,0.013,VALID,19.759,INVALID,360.0,VALID,0.0,
2018-08-03, 02:44:06,VALID,918.206,VALID,0.0,VALID,97.893,VALID,0.008,VALID,19.766,INVALID,360.0,VALID,0.0,
2018-08-03, 02:45:06,VALID,918.205,VALID,0.0,VALID,98.016,VALID,0.001,VALID,19.783,INVALID,360.0,VALID,0.0,
2018-08-03, 02:46:06,VALID,918.184,VALID,0.0,VALID,97.928,VALID,0.015,VALID,19.727,INVALID,360.0,VALID,0.0,
2018-08-03, 02:47:06,VALID,918.165,VALID,0.0,VALID,97.663,VALID,0.003,VALID,19.627,INVALID,360.0,VALID,0.0,
2018-08-03, 02:48:06,VALID,918.162,VALID,0.0,VALID,97.439,VALID,0.011,VALID,19.563,INVALID,360.0,VALID,0.0,
2018-08-03, 02:49:06,VALID,918.169,VALID,0.0,VALID,97.604,VALID,0.011,VALID,19.583,INVALID,360.0,VALID,0.0,
2018-08-03, 02:50:06,VALID,918.169,VALID,0.0,VALID,97.709,VALID,0.002,VALID,19.59,INVALID,360.0,VALID,0.0,
2018-08-03, 02:51:06,VALID,918.167,VALID,0.0,VALID,97.797,VALID,0.018,VALID,19.592,INVALID,360.0,VALID,0.0,
2018-08-03, 02:52:06,VALID,918.17,VALID,0.0,VALID,97.899,VALID,0.005,VALID,19.599,INVALID,360.0,VALID,0.0,
2018-08-03, 02:53:06,VALID,918.173,VALID,0.0,VALID,97.881,VALID,0.022,VALID,19.584,INVALID,360.0,VALID,0.0,
2018-08-03, 02:54:06,VALID,918.155,VALID,0.0,VALID,97.999,VALID,0.022,VALID,19.622,INVALID,360.0,VALID,0.0,
2018-08-03, 02:55:06,VALID,918.136,VALID,0.0,VALID,98.071,VALID,0.01,VALID,19.639,INVALID,360.0,VALID,0.0,
2018-08-03, 02:56:06,VALID,918.137,VALID,0.0,VALID,97.922,VALID,0.001,VALID,19.553,INVALID,360.0,VALID,0.0,
2018-08-03, 02:57:06,VALID,918.127,VALID,0.0,VALID,97.634,VALID,0.012,VALID,19.445,INVALID,360.0,VALID,0.0,
2018-08-03, 02:58:06,VALID,918.124,VALID,0.0,VALID,97.373,VALID,0.014,VALID,19.384,INVALID,360.0,VALID,0.0,
2018-08-03, 02:59:06,VALID,918.117,VALID,0.0,VALID,97.451,VALID,0.009,VALID,19.411,INVALID,360.0,VALID,0.0,
2018-08-03, 03:00:06,VALID,918.123,VALID,0.0,VALID,97.673,VALID,0.011,VALID,19.463,INVALID,360.0,VALID,0.0,
2018-08-03, 03:01:06,VALID,918.115,VALID,0.0,VALID,97.731,VALID,0.006,VALID,19.472,INVALID,360.0,VALID,0.0,
2018-08-03, 03:02:06,VALID,918.109,VALID,0.0,VALID,97.883,VALID,0.011,VALID,19.513,INVALID,360.0,VALID,0.0,
2018-08-03, 03:03:06,VALID,918.101,VALID,0.0,VALID,97.965,VALID,0.008,VALID,19.526,INVALID,360.0,VALID,0.0,
2018-08-03, 03:04:06,VALID,918.092,VALID,0.0,VALID,97.902,VALID,0.027,VALID,19.482,INVALID,360.0,VALID,0.0,
2018-08-03, 03:05:06,VALID,918.098,VALID,0.0,VALID,98.009,VALID,0.006,VALID,19.475,INVALID,360.0,VALID,0.0,
2018-08-03, 03:06:06,VALID,918.101,VALID,0.0,VALID,97.976,VALID,-0.005,VALID,19.447,INVALID,360.0,VALID,0.0,
2018-08-03, 03:07:06,VALID,918.097,VALID,0.0,VALID,97.971,VALID,-0.007,VALID,19.442,INVALID,360.0,VALID,0.0,
2018-08-03, 03:08:06,VALID,918.107,VALID,0.0,VALID,97.94,VALID,-0.012,VALID,19.439,INVALID,360.0,VALID,0.0,
2018-08-03, 03:09:06,VALID,918.11,VALID,0.0,VALID,97.773,VALID,-0.007,VALID,19.396,INVALID,360.0,VALID,0.0,
2018-08-03, 03:10:06,VALID,918.107,VALID,0.0,VALID,97.355,VALID,-0.007,VALID,19.286,INVALID,360.0,VALID,0.0,
2018-08-03, 03:11:06,VALID,918.11,VALID,0.0,VALID,97.226,VALID,-0.013,VALID,19.247,INVALID,360.0,VALID,0.0,
2018-08-03, 03:12:06,VALID,918.104,VALID,0.0,VALID,97.147,VALID,-0.017,VALID,19.202,INVALID,360.0,VALID,0.0,
2018-08-03, 03:13:06,VALID,918.099,VALID,0.0,VALID,97.325,VALID,-0.014,VALID,19.231,INVALID,360.0,VALID,0.0,
2018-08-03, 03:14:06,VALID,918.101,VALID,0.0,VALID,97.407,VALID,0.006,VALID,19.225,INVALID,360.0,VALID,0.0,
2018-08-03, 03:15:06,VALID,918.09,VALID,0.0,VALID,98.099,VALID,-0.007,VALID,19.402,INVALID,360.0,VALID,0.0,
2018-08-03, 03:16:06,VALID,918.077,VALID,0.0,VALID,98.155,VALID,0.002,VALID,19.419,INVALID,360.0,VALID,0.0,
2018-08-03, 03:17:06,VALID,918.07,VALID,0.0,VALID,98.262,VALID,0.001,VALID,19.428,INVALID,360.0,VALID,0.0,
2018-08-03, 03:18:06,VALID,918.064,VALID,0.0,VALID,98.306,VALID,0.004,VALID,19.413,INVALID,360.0,VALID,0.0,
2018-08-03, 03:19:06,VALID,918.074,VALID,0.0,VALID,98.476,VALID,-0.016,VALID,19.476,INVALID,360.0,VALID,0.0,
2018-08-03, 03:20:06,VALID,918.093,VALID,0.0,VALID,98.546,VALID,-0.023,VALID,19.52,INVALID,360.0,VALID,0.0,
2018-08-03, 03:21:06,VALID,918.094,VALID,0.0,VALID,98.457,VALID,0.013,VALID,19.486,INVALID,360.0,VALID,0.0,
2018-08-03, 03:22:06,VALID,918.131,VALID,0.0,VALID,98.576,VALID,0.022,VALID,19.523,INVALID,360.0,VALID,0.0,
2018-08-03, 03:23:06,VALID,918.12,VALID,0.0,VALID,98.604,VALID,0.017,VALID,19.545,INVALID,360.0,VALID,0.0,
2018-08-03, 03:24:06,VALID,918.118,VALID,0.0,VALID,98.686,VALID,0.014,VALID,19.61,INVALID,360.0,VALID,0.0,
2018-08-03, 03:25:06,VALID,918.106,VALID,0.0,VALID,98.731,VALID,0.038,VALID,19.677,INVALID,360.0,VALID,0.0,
2018-08-03, 03:26:06,VALID,918.089,VALID,0.0,VALID,98.745,VALID,0.036,VALID,19.708,INVALID,360.0,VALID,0.0,
2018-08-03, 03:27:06,VALID,918.085,VALID,0.0,VALID,98.671,VALID,0.033,VALID,19.66,INVALID,360.0,VALID,0.0,
2018-08-03, 03:28:06,VALID,918.083,VALID,0.0,VALID,98.745,VALID,0.04,VALID,19.69,INVALID,360.0,VALID,0.0,
2018-08-03, 03:29:06,VALID,918.067,VALID,0.0,VALID,98.775,VALID,0.029,VALID,19.7,INVALID,360.0,VALID,0.0,
2018-08-03, 03:30:06,VALID,918.054,VALID,0.0,VALID,98.736,VALID,0.036,VALID,19.688,INVALID,360.0,VALID,0.0,
2018-08-03, 03:31:06,VALID,918.041,VALID,0.0,VALID,98.774,VALID,0.022,VALID,19.688,INVALID,360.0,VALID,0.0,
2018-08-03, 03:32:06,VALID,918.024,VALID,0.0,VALID,98.796,VALID,0.037,VALID,19.705,INVALID,360.0,VALID,0.0,
2018-08-03, 03:33:06,VALID,917.995,VALID,0.0,VALID,98.807,VALID,0.017,VALID,19.721,INVALID,360.0,VALID,0.0,
2018-08-03, 03:34:06,VALID,917.955,VALID,0.0,VALID,98.79,VALID,0.004,VALID,19.7,INVALID,360.0,VALID,0.0,
2018-08-03, 03:35:06,VALID,917.934,VALID,0.0,VALID,98.795,VALID,0.025,VALID,19.684,INVALID,360.0,VALID,0.0,
2018-08-03, 03:36:06,VALID,917.922,VALID,0.0,VALID,98.766,VALID,0.002,VALID,19.631,INVALID,360.0,VALID,0.0,
2018-08-03, 03:37:06,VALID,917.924,VALID,0.0,VALID,98.53,VALID,0.009,VALID,19.429,INVALID,360.0,VALID,0.0,
2018-08-03, 03:38:06,VALID,917.92,VALID,0.0,VALID,98.843,VALID,0.011,VALID,19.549,INVALID,360.0,VALID,0.0,
2018-08-03, 03:39:06,VALID,917.915,VALID,0.0,VALID,98.927,VALID,0.012,VALID,19.665,INVALID,360.0,VALID,0.0,
2018-08-03, 03:40:06,VALID,917.921,VALID,0.0,VALID,98.903,VALID,-0.016,VALID,19.719,INVALID,360.0,VALID,0.0,